User: anonymous   Login
Location: Slanting_Bridge
(35.6330°N, 80.9830°W)
Time: 07:03:52
(UTC-04:00)
Language:

Hamsat - Orbit

View from above orbital plane
View from above orbital plane
View from above satellite
View from above satellite

Ground track
Ground track

The orbit data is extracted from the following two-line orbital elements,

1 28650U 05017B   16145.53350604  .00000568  00000-0  66908-4 0  9999
2 28650  97.6064 128.3162 0023200 341.6048  18.4328 14.88270620598355
Epoch (UTC): 24 May 2016 12:48:14
Eccentricity: 0.0023200
inclination: 97.6064°
perigee height: 587 km
apogee height: 619 km
right ascension of ascending node: 128.3162°
argument of perigee: 341.6048°
revolutions per day: 14.88270620
mean anomaly at epoch: 18.4328°
orbit number at epoch: 59835

The dashed part of the orbit path shows where the satellite is in the earth's shadow,  

DLR